Wetbulb
55.89 57.59 58.55 59.20 59.82 60.22 61.02 61.71 62.40 62.39 62.51 62.56 62.64 61.96 61.84 61.85 61.58 59.90 55.98 61.32 62.16 65.50 64.03 61.52 60.60 59.36 56.88 54.12 53.43 51.07 45.04 42.57 43.46 45.60 47.07 50.88 49.94 51.83 53.28 53.88 54.95 56.37 55.73 57.67 61.73
54.89 55.66 57.49 58.44 58.96 59.45 60.09 60.80 61.53 61.97 62.04 62.29 62.44 62.00 61.74 61.38 58.65 55.62 61.86 64.83 65.03 64.91 60.71 58.27 56.70 57.18 51.95 51.99 51.59 46.40 42.79 44.86 46.81 46.19 47.06 49.32 50.43 51.62 51.35 51.21 52.76 55.49 59.19 60.56 61.41
54.47 54.85 56.07 57.51 58.51 58.89 59.65 60.15 60.46 61.33 61.73 61.75 61.79 61.74 61.27 60.55 52.67 52.50 63.63 64.76 64.74 63.64 61.09 59.60 58.28 56.15 50.14 50.15 48.86 46.47 43.19 47.25 47.99 49.17 49.54 49.10 48.40 50.39 49.83 47.46 53.03 54.09 57.57 59.69 59.74
54.12 54.18 54.87 56.16 57.37 58.34 58.98 59.57 60.00 60.59 61.27 61.44 61.50 61.30 60.74 58.80 40.20 57.53 64.01 64.82 63.87 61.28 58.98 57.10 55.52 50.29 47.39 46.11 49.83 45.00 47.08 47.90 50.11 49.81 49.29 47.72 49.05 47.96 48.28 49.96 53.15 56.19 58.50 59.21 59.38
53.67 54.59 54.24 54.59 55.65 57.48 58.04 59.31 59.83 59.89 60.66 61.18 61.25 60.75 57.66 51.25 50.99 61.03 62.65 63.27 61.41 58.93 56.14 54.91 52.87 50.84 46.25 46.83 48.11 45.40 47.00 48.93 49.23 48.84 48.20 50.04 47.31 46.74 46.96 49.84 55.13 56.43 57.46 58.13 58.85
52.99 53.76 54.36 54.00 54.47 56.33 57.57 58.21 59.35 59.73 60.02 60.55 60.84 60.13 53.01 44.14 56.62 61.68 60.49 59.26 60.06 57.70 55.62 55.77 53.45 53.17 49.71 47.99 45.54 46.97 48.13 47.78 48.70 48.28 48.72 47.36 46.22 47.81 49.11 50.02 50.21 52.83 53.51 54.15 55.50
52.81 53.03 53.89 53.89 54.64 55.54 56.56 57.85 58.80 59.24 59.66 60.12 60.21 56.41 50.93 46.30 56.65 59.03 58.29 57.53 58.91 58.79 54.93 56.23 55.69 52.50 51.59 47.12 49.95 48.14 43.91 46.00 45.60 47.47 47.25 48.50 44.69 46.25 49.53 49.54 49.70 49.50 49.52 50.26 51.08
52.72 52.76 53.54 54.01 54.03 54.36 55.71 56.83 58.46 59.03 59.08 59.51 59.85 53.55 43.98 54.81 54.88 54.60 57.02 55.94 58.61 59.95 58.52 58.68 57.16 53.91 51.60 51.53 48.03 44.46 43.20 38.91 44.46 47.47 48.01 47.41 38.93 46.26 49.20 47.40 48.50 48.55 48.06 49.22 50.90
53.02 52.56 52.88 53.08 53.69 53.35 54.57 56.28 57.48 58.33 58.54 58.27 54.21 50.18 42.54 54.82 49.94 52.82 55.49 53.69 56.09 58.21 57.96 59.37 55.49 51.16 49.32 44.67 41.08 41.38 35.56 37.36 41.33 46.44 46.21 44.81 40.44 46.22 48.23 46.87 46.43 46.52 47.48 48.34 48.94
52.94 52.63 52.62 52.96 53.28 52.98 53.54 55.76 56.62 56.66 56.52 54.81 53.82 44.94 47.17 45.32 49.99 51.90 55.33 56.02 53.75 54.83 53.58 52.74 50.12 45.27 43.18 41.51 35.07 36.85 37.20 38.30 38.04 41.58 42.88 42.24 41.64 44.84 47.17 46.31 45.64 45.16 45.70 46.08 47.85
52.57 52.89 52.41 52.15 52.28 52.71 52.39 52.34 48.27 47.38 51.11 46.06 45.94 45.68 46.62 49.71 52.04 50.59 55.33 54.18 52.84 51.51 45.33 49.96 44.46 40.60 43.15 44.78 43.54 40.82 39.12 38.32 38.64 42.96 40.41 39.97 41.12 44.82 47.34 44.23 44.48 44.53 44.77 45.91 47.38
53.00 52.75 52.48 51.80 51.36 52.67 51.00 48.09 47.71 50.08 43.39 48.84 48.10 47.53 49.70 49.81 44.81 48.47 55.18 48.14 47.95 42.25 46.68 45.05 40.17 43.10 45.68 45.43 43.70 41.45 38.33 37.14 40.15 42.54 41.28 39.68 38.89 42.46 43.72 44.01 45.06 45.10 44.65 45.55 46.59
53.03 52.49 52.35 52.33 52.42 50.37 47.14 47.61 50.42 52.40 42.21 44.45 47.22 46.79 46.32 48.94 44.01 45.05 51.18 48.50 45.09 42.23 43.37 39.04 40.19 45.32 44.44 42.72 41.54 40.28 39.45 37.46 37.47 40.13 40.13 37.86 36.71 38.79 43.22 44.34 45.80 46.36 47.45 47.98 47.17
52.91 52.38 52.07 52.29 45.89 47.45 43.74 48.93 50.35 52.01 35.69 37.97 42.56 45.48 47.40 47.66 42.06 48.62 51.89 46.70 44.42 40.73 41.24 40.98 43.91 42.54 41.24 39.89 41.60 37.54 41.22 41.09 39.38 36.24 31.29 36.95 29.06 35.13 38.11 39.55 41.95 44.22 45.75 47.02 47.64
52.42 52.37 52.08 50.53 41.44 41.97 45.96 49.42 49.40 47.34 22.10 38.30 41.83 49.16 46.55 43.11 43.39 44.09 51.52 46.91 39.86 41.01 40.82 36.19 39.57 39.81 38.84 39.90 40.40 37.22 40.93 39.49 38.46 35.41 32.99 33.19 30.47 31.44 36.54 35.85 38.93 42.68 43.45 44.77 45.93
52.34 52.12 51.74 45.82 43.47 44.88 48.84 49.04 46.52 31.93 20.24 35.15 41.95 41.40 41.39 42.42 41.90 44.61 46.47 48.23 45.42 40.01 39.34 37.56 40.99 40.96 39.76 42.41 42.47 42.84 40.80 39.33 38.23 36.77 30.58 33.85 32.16 29.56 35.47 38.80 40.91 40.56 41.85 43.09 42.51
52.06 51.90 49.17 45.89 39.29 46.61 48.42 43.27 29.03 24.05 34.25 33.11 36.44 40.45 39.09 38.54 40.01 40.86 41.41 40.56 36.29 33.42 32.96 36.12 37.88 40.27 40.94 38.83 41.60 41.75 37.62 27.32 28.76 26.79 25.24 31.31 31.98 34.66 36.68 39.54 39.99 40.77 41.10 41.08 40.83
51.91 51.48 48.49 45.49 45.55 46.27 43.11 34.15 23.64 27.26 27.82 38.35 37.98 38.37 35.11 38.35 38.37 39.60 38.36 36.86 39.93 35.60 31.94 31.26 29.39 37.59 41.36 38.55 36.94 38.88 37.65 28.33 21.82 22.99 23.09 29.31 27.06 30.90 38.78 41.77 42.57 43.15 41.11 40.33 39.38
51.55 46.56 42.84 43.81 46.52 46.22 36.96 26.13 22.89 23.45 33.37 34.62 37.11 34.27 34.34 37.08 37.25 36.85 36.50 36.11 39.37 38.37 30.96 29.82 29.30 38.08 40.05 41.26 41.15 36.07 34.50 37.45 29.69 21.32 22.38 26.20 29.41 34.77 37.39 38.47 38.76 38.76 39.95 40.18 40.22
45.22 43.14 40.40 45.12 44.51 42.06 31.82 27.84 27.99 35.09 36.20 37.18 29.38 34.66 31.46 34.08 33.60 35.66 35.32 39.07 38.57 40.66 39.77 35.28 26.47 36.21 39.26 41.12 40.67 37.55 39.99 32.72 30.23 21.38 13.58 22.59 24.40 28.28 32.62 36.33 37.13 38.21 38.93 39.69 39.36
42.89 35.97 41.05 44.08 41.78 33.57 21.13 17.25 27.14 33.80 36.32 35.10 34.24 34.22 33.84 33.84 34.15 34.63 34.52 36.51 40.52 39.59 40.99 37.95 33.74 32.56 37.68 35.70 35.26 36.59 34.34 35.26 34.60 29.28 21.67 18.95 23.18 31.93 35.61 36.53 37.28 38.17 39.79 39.94 39.56
38.18 31.83 43.92 42.24 27.15 25.86 22.97 19.90 32.10 32.77 36.65 34.52 33.52 31.93 31.98 33.74 34.50 32.90 33.07 37.14 40.66 40.86 36.23 38.85 35.78 30.08 33.35 38.58 40.38 39.66 37.14 36.73 29.81 22.03 26.57 27.51 28.04 35.80 35.82 37.77 38.17 39.34 40.03 39.09 39.96
32.34 35.00 43.79 36.50 18.25 22.69 13.69 24.81 29.14 29.25 30.84 32.62 31.57 33.83 32.69 29.89 27.77 34.95 34.96 38.47 40.18 39.81 37.46 39.27 33.78 26.74 27.76 34.98 36.18 35.06 36.83 37.39 36.43 31.54 29.68 26.87 28.68 40.65 40.74 40.38 38.28 37.59 39.05 38.92 37.90
33.71 29.43 33.05 34.67 26.83 19.79 14.42 17.09 19.81 30.85 31.17 32.62 32.65 34.74 31.58 29.21 31.42 28.30 30.54 37.40 39.61 40.86 42.52 41.73 33.70 30.43 26.90 27.98 34.16 32.51 35.03 36.91 35.69 30.73 30.20 30.61 32.04 36.42 35.95 35.98 36.68 38.81 39.44 38.23 37.83
29.83 26.32 31.09 26.02 25.94 23.89 27.09 23.39 18.16 20.20 29.97 31.66 28.44 28.85 28.74 24.90 28.95 28.52 31.81 34.66 39.35 41.00 41.01 39.43 32.45 33.55 33.65 30.81 32.71 33.29 34.18 35.38 34.08 34.54 30.04 32.52 31.94 36.26 38.98 39.47 39.57 40.74 40.68 38.12 37.78
30.43 28.75 30.37 18.32 28.94 28.67 27.79 19.40 25.15 24.71 27.92 26.53 25.74 28.56 29.25 25.24 27.91 28.51 33.25 33.62 35.28 37.47 38.56 39.29 31.33 31.73 30.17 32.86 31.83 30.68 32.39 34.31 34.82 34.97 34.22 34.42 33.47 40.34 41.57 41.17 38.15 39.99 39.35 38.20 39.01
36.00 34.94 29.28 26.90 20.71 21.80 25.49 23.63 25.68 28.94 29.58 31.88 30.53 29.08 29.18 30.36 33.75 35.72 37.41 37.26 37.05 35.99 36.23 36.51 34.70 30.63 27.93 30.11 31.37 27.84 31.66 32.12 32.95 35.23 34.69 30.47 35.62 39.89 38.99 39.74 40.19 40.37 39.60 39.92 41.31
MSLP
1017.19 1017.11 1016.88 1016.67 1016.65 1016.87 1017.08 1017.27 1017.47 1017.66 1017.76 1017.80 1017.75 1016.87 1017.34 1017.45 1017.24 1017.34 1016.90 1016.61 1016.30 1015.95 1015.57 1015.17 1014.61 1014.18 1013.71 1013.77 1013.69 1013.98 1014.98 1015.55 1015.10 1014.84 1014.25 1013.97 1014.17 1014.37 1014.59 1015.18 1015.79 1016.17 1016.51 1016.45 1016.88
1017.17 1017.11 1016.94 1016.63 1016.58 1016.58 1016.84 1017.11 1017.30 1017.33 1017.47 1017.50 1017.59 1017.21 1017.32 1017.71 1017.57 1017.36 1016.62 1016.39 1016.10 1015.91 1015.99 1016.06 1015.72 1015.18 1014.90 1014.59 1014.40 1014.74 1015.35 1015.22 1014.83 1014.42 1014.20 1013.94 1013.95 1014.26 1014.88 1015.59 1016.35 1016.70 1016.91 1017.00 1017.16
1017.01 1017.00 1016.95 1016.70 1016.60 1016.56 1016.61 1016.86 1017.11 1017.26 1017.19 1017.37 1017.48 1017.37 1017.27 1017.80 1017.80 1016.64 1016.41 1016.38 1016.26 1016.09 1016.16 1016.34 1016.16 1016.07 1015.81 1015.39 1015.07 1015.20 1015.35 1014.97 1014.68 1014.36 1014.25 1014.22 1014.23 1014.29 1014.96 1015.69 1016.05 1016.49 1017.09 1017.42 1017.60
1016.76 1016.85 1016.89 1016.78 1016.55 1016.58 1016.49 1016.58 1016.79 1016.96 1017.14 1017.20 1017.27 1017.51 1017.61 1017.97 1017.73 1016.35 1016.33 1016.27 1016.14 1016.07 1016.31 1016.49 1016.49 1016.47 1016.25 1015.95 1015.50 1015.50 1015.33 1015.04 1014.70 1014.54 1014.43 1014.61 1014.51 1014.65 1014.81 1015.04 1015.03 1015.74 1016.46 1017.12 1017.56
1016.60 1016.67 1016.78 1016.78 1016.71 1016.65 1016.46 1016.54 1016.58 1016.82 1016.98 1017.18 1017.32 1017.64 1017.96 1017.82 1017.20 1016.53 1016.31 1016.25 1016.16 1016.16 1016.38 1016.66 1016.79 1016.89 1016.77 1016.44 1015.96 1015.68 1015.43 1015.18 1015.07 1014.92 1014.81 1014.79 1015.09 1015.25 1015.12 1014.98 1015.14 1015.69 1016.35 1016.82 1017.13
1016.32 1016.50 1016.63 1016.71 1016.71 1016.62 1016.56 1016.50 1016.64 1016.72 1017.16 1017.39 1017.43 1017.70 1017.91 1017.45 1016.68 1016.40 1016.29 1016.12 1016.22 1016.41 1016.42 1016.76 1016.83 1017.02 1016.91 1016.57 1016.28 1015.87 1015.61 1015.43 1015.33 1015.50 1015.28 1015.33 1015.68 1015.58 1015.25 1015.43 1015.74 1016.00 1016.22 1016.50 1016.60
1015.99 1016.22 1016.40 1016.55 1016.59 1016.57 1016.34 1016.43 1016.59 1016.71 1017.00 1017.21 1017.46 1017.90 1018.11 1017.08 1016.70 1016.47 1016.30 1016.23 1016.37 1016.44 1016.47 1016.65 1016.91 1016.94 1017.06 1016.73 1016.36 1016.17 1016.30 1016.15 1015.82 1015.78 1015.81 1015.94 1016.38 1015.97 1015.37 1015.83 1016.31 1016.43 1016.24 1016.20 1016.09
1015.63 1015.91 1016.15 1016.37 1016.48 1016.50 1016.43 1016.41 1016.53 1016.74 1016.70 1017.08 1017.42 1018.02 1017.72 1016.78 1016.80 1016.75 1016.31 1016.42 1016.48 1016.56 1016.60 1016.58 1016.71 1017.18 1017.23 1017.11 1016.94 1016.93 1017.14 1017.31 1016.48 1016.19 1016.01 1016.24 1016.40 1015.85 1015.72 1016.19 1016.36 1016.43 1016.44 1016.09 1015.68
1015.31 1015.66 1015.91 1016.21 1016.38 1016.49 1016.42 1016.36 1016.51 1016.70 1016.92 1017.29 1017.69 1017.77 1017.45 1016.49 1016.75 1016.40 1016.61 1016.70 1016.79 1016.88 1016.82 1016.66 1016.85 1017.44 1017.64 1017.96 1018.27 1018.21 1018.10 1018.15 1017.47 1016.61 1016.55 1016.83 1016.68 1015.91 1015.76 1016.24 1016.46 1016.31 1016.32 1016.10 1015.79
1014.93 1015.37 1015.73 1016.01 1016.29 1016.47 1016.42 1016.34 1016.48 1016.82 1017.25 1017.76 1017.90 1018.41 1017.28 1016.50 1016.34 1016.52 1016.68 1016.91 1017.17 1017.26 1017.32 1017.29 1017.65 1018.03 1018.41 1018.56 1018.63 1018.93 1018.81 1018.23 1017.77 1016.99 1016.99 1017.08 1016.87 1016.32 1016.01 1016.20 1016.31 1016.17 1016.05 1016.02 1015.70
1014.51 1014.96 1015.44 1015.79 1016.11 1016.31 1016.50 1016.64 1017.39 1017.53 1017.10 1016.97 1017.08 1017.25 1016.58 1016.44 1016.18 1016.51 1016.67 1017.12 1017.40 1017.53 1017.62 1017.80 1018.26 1017.85 1018.06 1017.85 1017.92 1018.36 1018.55 1018.41 1017.96 1017.41 1017.46 1017.19 1017.03 1016.66 1016.24 1016.34 1016.29 1016.06 1015.88 1015.75 1015.63
1013.95 1014.56 1015.11 1015.60 1015.93 1016.28 1016.54 1016.33 1016.82 1016.75 1017.01 1016.75 1016.75 1016.83 1016.60 1016.61 1016.73 1016.88 1016.88 1017.49 1017.76 1018.05 1017.99 1018.46 1017.63 1018.05 1018.27 1018.45 1018.54 1018.56 1018.71 1018.60 1018.28 1017.79 1017.85 1017.42 1016.96 1016.59 1016.23 1015.88 1015.69 1015.62 1015.61 1015.35 1015.20
1013.43 1014.18 1014.83 1015.41 1015.80 1016.34 1016.52 1016.69 1016.80 1016.38 1016.51 1016.52 1016.66 1016.61 1016.73 1016.58 1016.75 1016.88 1017.12 1017.44 1017.68 1018.11 1017.98 1017.83 1017.64 1017.66 1018.24 1018.35 1018.67 1018.56 1018.56 1018.72 1018.62 1018.22 1017.96 1017.82 1016.64 1016.33 1015.59 1015.17 1015.04 1014.87 1014.63 1014.47 1014.57
1012.98 1013.84 1014.57 1015.30 1016.45 1016.28 1016.45 1016.61 1016.52 1016.55 1016.75 1016.41 1016.20 1015.99 1016.57 1016.54 1016.86 1016.58 1016.92 1017.19 1017.52 1017.81 1018.26 1018.23 1017.71 1017.82 1017.96 1018.04 1018.23 1018.48 1018.31 1018.61 1018.99 1019.30 1019.09 1018.56 1016.33 1015.87 1015.42 1014.92 1014.67 1014.42 1013.98 1013.71 1013.75
1012.53 1013.48 1014.27 1015.10 1015.78 1016.14 1016.14 1016.57 1017.08 1016.95 1016.43 1015.41 1015.50 1015.17 1015.59 1016.43 1016.57 1016.81 1016.37 1017.06 1017.47 1017.60 1018.15 1017.71 1017.52 1017.73 1017.77 1017.41 1017.94 1018.04 1018.10 1018.66 1019.17 1019.60 1019.85 1019.35 1019.08 1015.06 1014.87 1014.55 1014.25 1013.45 1013.29 1013.19 1013.30
1012.08 1013.06 1014.11 1015.36 1015.92 1015.89 1016.14 1016.75 1017.81 1017.67 1015.68 1015.33 1015.21 1015.20 1015.87 1016.14 1016.48 1016.89 1016.92 1017.33 1017.50 1017.83 1017.93 1017.87 1017.33 1017.34 1017.17 1017.27 1017.37 1017.65 1018.22 1018.88 1019.43 1020.09 1019.86 1019.23 1019.24 1014.44 1014.56 1013.85 1013.31 1013.06 1012.97 1012.98 1013.53
1011.79 1012.82 1014.08 1015.00 1015.81 1015.92 1016.23 1017.43 1017.98 1016.41 1015.71 1015.41 1014.99 1015.13 1015.51 1015.81 1016.56 1016.55 1016.87 1017.29 1017.24 1018.01 1017.96 1017.94 1017.46 1017.12 1016.82 1017.15 1017.25 1017.57 1018.27 1019.46 1020.30 1020.59 1019.34 1018.79 1018.79 1013.75 1013.93 1013.38 1013.06 1013.06 1012.91 1013.15 1013.72
1011.73 1012.94 1014.19 1014.95 1015.33 1015.96 1016.70 1017.65 1017.03 1015.95 1015.73 1015.05 1014.80 1015.17 1015.35 1015.63 1015.84 1016.15 1016.59 1016.55 1016.89 1016.97 1017.39 1017.68 1017.55 1016.83 1016.50 1016.23 1016.29 1016.96 1017.32 1018.16 1019.42 1020.22 1019.77 1019.18 1017.34 1014.25 1013.04 1012.23 1012.23 1012.19 1012.85 1013.70 1014.68
1012.02 1013.42 1014.70 1015.25 1015.48 1016.14 1017.41 1017.44 1016.78 1016.19 1015.45 1015.09 1015.07 1015.43 1015.47 1015.45 1015.52 1016.19 1015.84 1015.89 1015.93 1016.48 1016.83 1017.26 1016.83 1015.93 1016.04 1015.95 1016.20 1016.88 1017.03 1017.69 1019.04 1020.57 1020.38 1018.66 1016.40 1014.48 1013.02 1012.65 1012.22 1012.62 1013.32 1013.85 1014.45
1012.01 1013.71 1015.09 1015.26 1015.70 1016.90 1017.87 1017.52 1017.10 1016.50 1016.02 1015.00 1015.31 1015.43 1015.14 1015.26 1015.64 1015.62 1015.77 1014.71 1015.27 1015.67 1016.04 1016.36 1016.67 1016.03 1015.95 1015.98 1015.96 1016.02 1016.71 1017.95 1018.76 1020.19 1020.11 1017.86 1016.61 1014.26 1013.26 1012.77 1012.48 1012.91 1013.23 1013.77 1014.56
1012.80 1014.43 1015.43 1015.42 1016.12 1017.74 1018.86 1018.99 1017.81 1017.14 1016.72 1016.49 1015.98 1016.00 1015.89 1015.35 1015.36 1015.51 1014.89 1014.43 1014.57 1015.02 1015.83 1016.20 1016.24 1016.46 1016.11 1015.39 1015.23 1015.98 1016.20 1016.85 1017.61 1018.54 1018.35 1017.44 1015.15 1013.10 1012.43 1012.27 1012.54 1012.90 1013.35 1013.95 1014.59
1013.93 1014.76 1015.55 1015.51 1017.29 1018.68 1019.30 1019.17 1018.30 1017.67 1017.08 1017.04 1016.98 1016.85 1016.93 1016.51 1015.98 1015.92 1015.25 1014.36 1013.78 1014.46 1015.01 1015.97 1016.58 1016.47 1015.62 1015.15 1014.90 1015.03 1015.04 1015.68 1016.54 1017.26 1017.47 1016.82 1013.20 1012.31 1011.99 1011.87 1012.20 1012.55 1012.90 1013.33 1013.89
1014.37 1015.33 1016.01 1016.14 1018.19 1019.54 1020.09 1019.40 1018.84 1018.24 1017.43 1017.36 1017.16 1017.01 1017.48 1017.40 1017.11 1016.23 1015.12 1014.35 1014.14 1014.37 1014.17 1014.99 1015.86 1016.22 1015.93 1015.82 1015.48 1015.18 1015.25 1015.43 1015.83 1016.40 1016.16 1015.79 1011.26 1011.43 1011.65 1011.73 1011.97 1012.21 1012.58 1013.01 1013.83
1014.73 1016.17 1016.96 1017.55 1018.69 1019.20 1019.81 1019.79 1019.30 1018.55 1018.06 1017.43 1017.16 1017.43 1017.68 1017.63 1017.59 1017.10 1016.33 1015.55 1014.28 1014.10 1014.19 1014.40 1014.81 1014.57 1013.82 1013.81 1014.46 1015.01 1014.83 1015.03 1015.43 1015.86 1014.48 1014.36 1011.55 1011.47 1011.71 1011.76 1012.05 1012.18 1012.48 1012.95 1013.64
1014.61 1016.17 1016.68 1017.80 1018.95 1019.26 1019.26 1019.04 1018.78 1018.48 1018.06 1017.68 1017.79 1017.15 1017.43 1017.47 1017.17 1016.63 1016.42 1015.87 1014.50 1013.87 1014.24 1014.62 1014.28 1014.36 1013.86 1014.16 1014.15 1013.96 1014.24 1014.59 1014.83 1014.00 1014.18 1012.72 1012.38 1010.23 1011.03 1011.19 1011.48 1011.50 1011.89 1012.58 1013.07
1015.27 1016.10 1017.00 1017.51 1017.88 1018.84 1018.86 1018.56 1018.23 1018.07 1017.71 1017.34 1016.93 1017.15 1016.97 1016.67 1015.96 1015.49 1015.48 1015.32 1014.88 1014.32 1014.25 1014.34 1013.89 1014.29 1014.07 1014.37 1014.58 1014.53 1014.17 1013.78 1013.61 1013.27 1013.17 1012.22 1011.37 1009.37 1009.98 1010.27 1010.54 1010.64 1011.38 1011.88 1011.74
1015.66 1015.86 1016.17 1017.60 1018.39 1018.85 1017.90 1017.66 1017.48 1017.27 1016.79 1016.45 1016.67 1016.99 1016.59 1015.76 1015.80 1015.24 1014.73 1014.42 1014.36 1015.28 1014.10 1014.09 1014.05 1014.61 1013.81 1014.34 1014.59 1014.38 1013.22 1013.05 1012.85 1012.32 1011.79 1011.74 1009.96 1009.56 1008.96 1008.99 1008.94 1009.55 1010.23 1010.20 1010.06
Wind_Speed
5 7 6 4 4 6 7 7 7 7 5 3 3 6 4 7 7 3 4 1 4 8 10 8 8 11 6 5 5 3 5 1 1 5 5 4 5 1 2 6 3 4 4 4 10
5 5 7 5 1 4 5 7 6 6 6 3 1 3 3 5 2 5 4 5 3 7 6 8 8 10 6 6 5 5 4 0 2 2 3 3 5 6 5 3 4 4 5 5 7
6 4 5 5 3 2 5 6 8 7 6 6 4 2 4 4 2 4 3 4 1 4 3 2 5 3 4 4 3 2 3 1 3 2 2 2 3 4 8 1 6 9 9 7 4
8 4 2 5 4 3 2 5 7 8 7 6 4 4 3 1 6 2 3 1 3 4 3 3 3 2 2 2 4 2 1 2 2 2 2 2 1 4 3 7 7 11 11 8 9
7 7 3 2 4 4 2 3 5 8 8 7 6 5 3 2 6 4 3 3 3 3 5 3 1 0 3 2 4 3 2 2 2 2 2 2 3 1 3 4 6 10 10 11 10
7 6 7 3 2 3 3 3 3 7 9 9 9 5 2 3 3 5 3 2 5 2 4 4 2 1 4 3 2 0 2 1 2 2 1 2 0 3 5 5 5 8 11 10 11
10 7 7 5 1 2 2 2 5 5 8 8 9 4 1 10 1 4 1 1 1 2 3 3 2 2 4 3 3 2 1 4 0 3 3 4 4 9 8 3 8 9 9 9 11
10 8 7 7 3 2 2 2 3 6 5 7 9 3 5 4 4 5 1 1 2 2 1 1 5 3 2 4 4 4 5 2 4 6 4 8 8 11 7 4 10 9 9 9 10
10 9 9 8 4 1 3 3 2 4 9 10 4 4 5 0 4 6 1 2 2 1 2 1 3 3 2 3 3 5 3 4 7 7 4 7 7 10 8 8 10 9 9 9 9
12 12 10 9 8 4 3 4 3 5 8 5 4 2 3 5 4 5 5 3 2 3 3 2 3 3 2 4 7 6 5 5 6 3 5 7 8 9 6 7 9 7 8 9 9
15 15 13 10 10 8 0 6 3 2 6 4 8 4 2 2 3 3 6 4 0 2 5 4 6 14 14 16 8 6 4 7 3 3 2 7 11 15 12 5 9 9 8 8 9
18 17 15 12 11 10 2 3 3 2 5 4 8 2 2 2 3 3 8 6 6 5 5 4 16 6 6 5 7 5 5 4 5 6 5 7 8 9 8 7 8 9 9 11 7
19 18 16 13 10 7 3 2 3 5 3 4 5 4 4 4 4 8 11 5 4 7 9 6 3 13 8 6 8 5 11 4 5 4 4 4 12 7 7 8 11 10 14 13 15
20 19 18 13 5 4 4 4 6 5 0 7 11 8 3 5 4 6 9 4 4 10 5 8 7 6 5 9 9 12 6 5 4 0 5 3 14 8 5 8 6 10 14 16 17
21 21 20 15 5 4 5 6 4 3 4 6 10 5 10 8 8 5 7 3 5 6 7 7 6 12 9 7 6 5 7 7 5 4 4 3 6 5 4 6 10 16 12 11 10
23 23 21 6 3 4 9 7 2 5 8 6 6 11 12 11 4 4 4 1 3 3 3 8 2 6 11 6 11 6 5 3 2 3 10 10 8 7 10 15 13 7 9 9 6
24 23 16 6 5 5 11 7 5 9 3 6 7 10 17 10 14 8 11 13 8 7 10 4 13 3 3 7 4 7 11 1 5 4 8 3 10 17 4 7 8 9 11 7 8
24 22 10 4 5 7 3 4 6 2 6 1 6 11 15 9 18 11 13 14 14 3 5 9 4 13 9 7 5 13 9 6 8 6 5 4 11 8 9 10 8 12 5 6 5
25 6 5 3 6 4 4 6 4 5 5 8 6 9 12 12 6 14 16 17 15 13 8 7 7 1 3 4 12 6 13 6 3 3 2 6 7 9 10 11 6 5 6 10 10
5 6 3 6 6 6 2 3 2 1 5 5 7 4 9 16 12 15 16 13 17 19 2 5 1 4 13 3 3 8 7 6 3 3 5 7 6 11 4 8 5 5 10 7 5
7 5 2 8 6 4 3 5 3 2 3 5 3 3 3 8 13 9 5 2 20 17 15 2 1 1 6 11 15 6 5 5 3 6 6 3 8 8 14 8 7 8 7 6 8
4 4 6 4 5 2 2 8 4 3 2 3 3 3 2 2 9 10 11 12 9 15 20 8 3 5 12 2 8 15 14 16 8 6 5 8 17 3 6 6 6 7 8 8 8
4 4 1 6 5 2 5 0 3 1 2 4 4 3 2 2 3 6 10 5 6 15 16 15 6 2 2 4 4 8 13 11 13 2 13 9 18 12 17 14 7 7 8 7 6
4 5 2 3 2 7 3 2 2 3 4 2 3 5 3 4 5 3 7 9 10 16 13 16 6 10 17 4 8 8 11 17 15 8 14 15 28 15 7 8 5 4 6 5 7
3 2 0 7 6 4 4 6 4 5 4 8 3 9 7 6 7 7 4 14 9 10 16 8 11 17 15 1 4 8 14 16 18 23 16 22 20 25 18 14 11 13 12 5 9
3 4 2 1 6 8 7 4 8 3 7 4 5 4 7 10 11 7 10 3 6 5 9 7 6 4 13 9 8 5 3 15 20 20 14 23 24 27 20 11 9 13 7 9 14
1 2 4 4 4 6 8 6 8 6 6 6 6 4 10 18 12 10 5 3 8 13 14 10 8 5 18 8 6 9 22 17 11 16 16 17 27 22 24 21 20 16 11 17 18
Wind_Direction
330 339 312 270 196 217 223 210 202 195 204 177 188 100 31 350 326 300 259 274 323 339 328 333 344 349 354 354 10 61 65 49 13 167 176 178 120 133 87 91 48 5 132 185 143
300 328 332 301 296 190 209 219 210 206 196 188 166 96 61 344 338 264 287 331 327 6 24 13 347 346 353 353 1 71 88 136 295 144 171 132 127 142 105 101 37 49 36 87 127
262 303 331 335 288 228 195 195 212 208 204 184 167 96 63 356 328 249 335 310 2 45 92 312 305 338 354 349 346 64 149 238 336 53 68 100 103 139 122 186 191 181 169 162 157
238 253 302 352 345 294 241 195 202 200 200 189 170 132 82 70 219 240 318 263 146 116 85 12 351 338 318 299 338 75 143 344 196 30 76 80 308 85 142 208 180 175 163 164 174
245 229 216 305 350 299 296 237 201 197 190 185 178 166 153 133 253 233 262 120 98 102 130 143 160 179 209 314 348 182 237 44 54 101 86 45 45 107 164 220 155 149 166 181 190
235 252 208 216 305 302 245 255 224 186 193 182 166 139 126 187 277 201 221 69 85 76 135 155 144 292 275 248 183 65 219 115 197 220 122 151 75 12 241 170 176 166 190 194 193
227 223 214 199 217 332 318 237 203 199 187 176 160 129 219 212 181 161 84 67 26 78 138 190 165 97 352 298 318 188 211 348 108 197 215 124 302 233 229 178 206 219 221 219 217
230 217 194 210 175 34 332 240 227 197 148 169 157 126 227 227 254 327 140 25 2 40 66 349 168 168 209 312 4 153 72 128 282 166 240 128 256 250 247 218 250 246 245 227 232
221 205 193 204 201 68 7 206 206 198 135 106 117 147 245 114 169 231 313 123 153 80 24 6 117 166 95 95 14 357 174 178 291 211 194 187 240 257 228 193 241 244 247 247 256
213 192 193 200 206 225 22 145 71 129 120 85 65 47 270 210 180 173 181 143 179 146 90 111 89 141 71 130 190 198 215 216 203 254 192 234 248 268 267 202 234 256 255 250 238
213 191 191 194 201 217 24 97 129 191 213 188 159 195 118 302 111 139 143 116 182 181 153 185 194 203 193 199 191 180 194 214 223 248 222 237 246 250 245 246 251 248 258 259 242
204 193 189 198 204 205 92 181 40 359 184 214 160 91 4 223 98 144 135 160 173 188 153 154 224 199 194 196 198 189 192 233 280 264 198 275 259 246 250 233 229 239 249 243 251
204 188 182 188 202 192 176 103 270 325 147 179 177 177 189 146 188 180 162 178 167 177 200 199 192 185 195 187 198 218 223 187 231 325 264 309 277 243 242 225 230 233 239 242 230
198 181 172 171 152 155 209 154 350 299 188 190 190 228 171 127 260 182 185 151 188 191 152 244 241 185 173 208 175 224 188 182 210 35 250 101 281 251 251 256 235 249 244 244 242
189 178 166 147 150 167 140 110 4 78 219 161 160 170 155 169 137 218 165 77 182 166 163 224 187 208 218 217 169 203 162 185 201 226 284 216 283 276 233 271 253 251 261 239 229
181 173 162 107 85 176 128 105 47 163 234 159 136 171 157 187 176 100 144 23 167 189 269 221 253 195 218 189 198 165 115 114 71 184 248 221 208 204 220 231 252 249 259 251 177
169 165 152 129 176 145 128 117 211 191 208 176 172 173 181 172 182 167 169 186 175 177 211 195 237 278 170 161 160 175 151 159 199 217 240 264 202 252 277 274 235 252 258 235 162
163 152 143 143 140 123 79 160 207 197 188 216 150 159 191 159 198 176 162 199 213 205 138 195 231 203 192 205 174 198 175 161 196 206 247 196 228 257 230 250 248 238 249 142 174
148 122 108 158 122 123 98 202 196 186 171 157 142 182 185 196 164 194 211 214 202 194 179 179 249 246 218 166 178 190 210 173 92 22 37 234 289 290 247 264 259 256 171 192 193
114 113 136 131 114 101 108 254 199 79 330 166 179 187 183 187 175 193 176 219 212 199 187 219 264 200 196 145 185 178 158 183 164 224 257 257 264 239 317 242 252 218 219 209 188
90 102 141 119 75 65 172 228 290 247 79 349 138 118 258 188 189 191 229 228 194 187 201 285 137 351 128 203 190 161 184 206 166 187 197 265 256 225 232 228 243 245 243 224 212
88 108 152 106 82 63 159 179 205 97 117 103 101 84 38 309 213 192 219 212 202 176 198 177 167 210 205 290 227 223 212 195 194 247 245 251 260 316 193 130 158 228 236 225 217
79 76 323 88 142 191 305 320 144 196 178 162 151 154 129 102 23 283 249 221 204 186 185 175 206 150 348 279 343 211 217 221 226 63 223 229 259 220 238 277 335 294 283 250 191
107 126 68 71 121 135 129 239 198 228 178 140 113 126 148 201 151 282 331 308 204 208 207 172 175 216 228 197 145 206 200 215 213 221 232 227 261 256 261 271 286 311 279 231 211
50 133 140 172 197 154 176 172 169 185 212 181 195 200 170 207 173 218 265 257 264 206 204 188 230 223 246 130 209 210 203 215 218 230 227 249 243 262 257 256 248 242 253 213 227
99 129 76 134 136 174 206 232 177 223 155 229 212 153 229 247 220 215 181 109 277 227 201 213 245 190 256 226 207 244 231 224 230 240 247 248 260 266 274 259 244 245 238 221 228
13 31 104 178 117 137 214 195 197 167 239 191 179 186 235 241 240 272 229 189 203 264 209 198 210 186 250 165 172 230 217 226 235 239 237 242 249 263 268 265 256 254 229 237 244